Find Shiyan 20B

NORAD ID: 54700 Int'l Des: 2022-169 Owner: SAST Country: CN operational
LEOCIRCULAR

当前视图

正在加载3D地球...

关于 Shiyan 20B

正在加载描述...

即将过境

Passes for default location (London). Set your location on the main map for personalized predictions.

高度历史

Loading altitude history...

两行轨道根数

1 54700U 22169B 26150.19283236 .00000083 00000-0 85416-4 0 9993
2 54700 59.9976 299.9815 0012823 186.9775 173.1084 14.29534964180780
Epoch: May 30, 2026 • Age: 4 hours

当前状态

高度 805.6 km
速度 7.45 km/s
星下点 -49.46°S, 137.03°E
发射日期 Dec 12, 2022
运行时间 3.4 years
类型 other

技术详情

分类 Payload
质量 500.00 kg
干质量 500.00 kg
总质量 500.00 kg
长度 2.50 m
直径 2.50 m
跨度 5.00 m
形状 Box + 2 Pan
制造商 SAST
阶段状态 In Orbit
所有者/国家 SAST/CN

Most Searched